Regional Weather Roundup
Issued by NWS

Home | Current Version | Previous Version | Text Only | Print | Product List | Glossary Off
Versions: 1 2 3 4 5 6 7 8 9 10 11 12 13 14 15 16 17 18 19 20 21 22 23 24 25 26 27

000
ASUS45 KCYS 151910
RWRWY

WYOMING REGIONAL WEATHER ROUNDUP
NATIONAL WEATHER SERVICE CHEYENNE WY
100 PM MDT TUE APR 15 2014

NOTE:  "FAIR" INDICATES FEW OR NO CLOUDS BELOW 12,000 FEET
WITH NO SIGNIFICANT WEATHER AND/OR OBSTRUCTIONS TO VISIBILITY.

WYZ001-152000-
YELLOWSTONE NATIONAL PARK

CITY           SKY/WX    TMP DP  RH WIND       PRES   REMARKS
LK YELLOWSTONE   N/A     36  15  42 W12G30    29.84F WCI  28
W YELLOWSTONE  NOT AVBL

$$
WYZ002>013-054>058-071-098>099-152000-
NORTHERN WYOMING

CITY           SKY/WX    TMP DP  RH WIND       PRES   REMARKS
JACKSON        PTSUNNY   45  18  33 MISG        N/A
CODY           CLOUDY    52  23  32 N12       29.69F
GREYBULL       CLOUDY    49  27  42 S6        29.71F
WORLAND        CLOUDY    52  24  33 SE7       29.71F
SHERIDAN       MOSUNNY   61  25  25 NW16      29.65F
BUFFALO        MOSUNNY   56  16  20 S8        29.69F
GILLETTE       MOSUNNY   60  20  21 W14G26    29.66F
HULETT         FAIR      59  23  25 SW7       29.66
NEWCASTLE      FAIR      50  25  37 S5        29.74

$$
WYZ014>020-022>026-101>103-152000-
CENTRAL WYOMING

CITY           SKY/WX    TMP DP  RH WIND       PRES   REMARKS
BIG PINEY      MOSUNNY   55  11  17 NW24G32   29.85F
PINEDALE       PTCLDY    45  18  33 NE7       29.88F
DUBOIS         FAIR      50   9  18 W25G38    29.76F
LANDER         MOSUNNY   58  18  21 W14G21    29.75F
RIVERTON       MOSUNNY   56   8  14 S14       29.76F
CASPER         MOSUNNY   54  21  27 SW17G30   29.77F
DOUGLAS        MOSUNNY   51  27  39 W14G20    29.77F

$$
WYZ021-027>030-104>119-152000-
SOUTHERN WYOMING

CITY           SKY/WX    TMP DP  RH WIND       PRES   REMARKS
EVANSTON       MOSUNNY   54  11  18 W25G36    29.95F
KEMMERER       PTCLDY    52   9  17 W23G36    29.91F
FORT BRIDGER   FAIR      58  10  15 W25G38    29.95F
ROCK SPRINGS   NOT AVBL
DIXON          FAIR      50  20  29 SW18G28   29.99F
RAWLINS        PTSUNNY   50  13  22 SW24G38   29.90F
SARATOGA       FAIR      46  18  31 SW17      29.94F
LARAMIE        CLOUDY    44  19  36 SW20      29.89F
CHEYENNE       CLOUDY    48  20  32 W21G26    29.86F
TORRINGTON     CLOUDY    54  27  35 W18G25    29.77F
PINE BLUFFS    FAIR      54  23  30 SW16G22   29.84F

$$



USA.gov is the U.S. government's official web portal to all federal, state and local government web resources and services.